Weather History for Chicago Executive, IL

Change the Weather History Date:

Wednesday, May 28, 2014

  Actual Average Record
Temperature  
Mean Temperature 61 °F 62 °F  
Max Temperature 66 °F 73 °F 93 °F (2012)
Min Temperature 55 °F 51 °F 42 °F (2008)
Degree Days  
Heating Degree Days 4 5  
Month to date heating degree days 209 233  
Since 1 July heating degree days 7123 6346  
Cooling Degree Days 0 2  
Month to date cooling degree days 53 31  
Year to date cooling degree days 53 35  
Growing Degree Days 10 (Base 50)    
Moisture  
Dew Point 53 °F    
Average Humidity 78    
Maximum Humidity 96    
Minimum Humidity 50    
Precipitation  
Precipitation 0.09 in 0.11 in 0.95 in (2003)
Month to date precipitation 3.64 3.38  
Year to date precipitation 9.20 11.18  
Sea Level Pressure  
Sea Level Pressure 30.01 in    
Wind  
Wind Speed 8 mph (NNE)    
Max Wind Speed 17 mph    
Max Gust Speed 25 mph    
Visibility 8 miles    
Events Rain , Thunderstorm    
T = Trace of Precipitation, MM = Missing Value Source: NWS Daily Summary

Daily Weather History Graph

Daily Weather History Graph

Search for Another Location

Airport:

Trip Planner

Search our weather history database for the weather conditions in past years. The results will help you decide how hot, cold, wet, or windy it might be!

Date:

Astronomy

May. 28, 2014 Rise Set
Actual Time 5:20 AM CDT 8:17 PM CDT
Civil Twilight 4:46 AM CDT 8:51 PM CDT
Nautical Twilight 4:04 AM CDT 9:33 PM CDT
Astronomical Twilight 3:15 AM CDT 10:23 PM CDT
Moon 5:27 AM CDT (5/28) 8:15 PM CDT (5/28)
Length of Visible Light 16h 04m
Length of Day
14h 57m
Waning Crescent, 0% of the Moon is Illuminated
May 28
Waning Crescent
May 28
New
Jun 5
First Quarter
Jun 12
Full
Jun 19
Last Quarter

Hourly Weather History & Observations

Time (CDT) Temp. Dew Point Humidity Pressure Visibility Wind Dir Wind Speed Gust Speed Precip Events Conditions
12:07 AM 57.9 °F 55.9 °F 93% 29.98 in 1.2 mi NW 9.2 mph - N/A   Overcast
12:47 AM 60.8 °F 59.0 °F 94% 29.97 in 2.0 mi NNW 6.9 mph - 0.03 in Rain Light Rain
12:52 AM 61.0 °F 59.0 °F 93% 29.96 in 2.0 mi NNW 6.9 mph - 0.05 in Rain Heavy Rain
1:05 AM 62.1 °F 60.1 °F 93% 29.96 in 3.0 mi WSW 4.6 mph - 0.00 in   Overcast
1:41 AM 62.1 °F 61.0 °F 96% 29.95 in 2.5 mi SE 6.9 mph - 0.08 in Rain Heavy Rain
1:52 AM 62.1 °F 61.0 °F 96% 29.93 in 3.0 mi ESE 5.8 mph - 0.08 in Rain Light Rain
2:00 AM 62.1 °F 61.0 °F 96% 29.94 in 4.0 mi ENE 4.6 mph - 0.00 in Rain , Thunderstorm Light Rain
2:09 AM 62.1 °F 61.0 °F 96% 29.94 in 4.0 mi Calm Calm - 0.00 in   Overcast
2:52 AM 62.1 °F 61.0 °F 96% 29.93 in 4.0 mi NNE 4.6 mph - 0.01 in Rain Light Rain
3:16 AM 62.1 °F 60.1 °F 93% 29.94 in 4.0 mi North 3.5 mph - 0.00 in Rain Light Rain
3:25 AM 62.1 °F 60.1 °F 93% 29.94 in 4.0 mi NNE 4.6 mph - 0.00 in   Overcast
3:52 AM 60.1 °F 57.9 °F 93% 29.94 in 5.0 mi ENE 4.6 mph - 0.00 in   Mostly Cloudy
4:00 AM 60.1 °F 57.9 °F 93% 29.95 in 8.0 mi NE 6.9 mph - N/A   Overcast
4:52 AM 57.9 °F 54.0 °F 87% 29.96 in 10.0 mi ENE 3.5 mph - N/A   Partly Cloudy
5:15 AM 55.9 °F 52.0 °F 87% 29.97 in 10.0 mi NE 4.6 mph - N/A   Scattered Clouds
5:52 AM 55.9 °F 51.1 °F 84% 29.98 in 10.0 mi ENE 4.6 mph - N/A   Mostly Cloudy
6:52 AM 55.0 °F 48.9 °F 80% 30.00 in 10.0 mi NNE 4.6 mph - N/A   Clear
7:52 AM 55.9 °F 48.9 °F 77% 30.02 in 10.0 mi NNE 4.6 mph - N/A   Partly Cloudy
8:52 AM 57.0 °F 46.9 °F 69% 30.03 in 10.0 mi NE 5.8 mph - N/A   Scattered Clouds
9:52 AM 61.0 °F 48.9 °F 64% 30.03 in 10.0 mi North 9.2 mph - N/A   Clear
10:52 AM 62.1 °F 48.0 °F 60% 30.05 in 10.0 mi NE 10.4 mph - N/A   Clear
11:52 AM 64.0 °F 46.0 °F 52% 30.05 in 10.0 mi NE 8.1 mph - N/A   Partly Cloudy
2:52 PM 64.9 °F 46.0 °F 50% 30.03 in 10.0 mi NE 10.4 mph - N/A   Clear
3:52 PM 63.0 °F 46.0 °F 54% 30.02 in 10.0 mi NE 17.3 mph 24.2 mph N/A   Clear
4:52 PM 64.0 °F 50.0 °F 60% 30.05 in 10.0 mi NNE 15.0 mph 20.7 mph N/A   Clear
5:20 PM 62.1 °F 53.1 °F 72% 30.06 in 10.0 mi NNE 13.8 mph - N/A   Mostly Cloudy
5:52 PM 60.1 °F 53.1 °F 78% 30.06 in 9.0 mi NNE 11.5 mph - N/A   Overcast
6:52 PM 59.0 °F 53.1 °F 81% 30.07 in 8.0 mi NNE 10.4 mph - N/A   Overcast
7:09 PM 59.0 °F 48.9 °F 69% 30.07 in 10.0 mi NNE 9.2 mph 19.6 mph N/A   Overcast
7:16 PM 59.0 °F 48.0 °F 67% 30.07 in 10.0 mi NNE 10.4 mph 19.6 mph N/A   Overcast
7:34 PM 59.0 °F 46.9 °F 64% 30.07 in 10.0 mi NNE 11.5 mph - N/A   Overcast
7:52 PM 59.0 °F 46.9 °F 64% 30.07 in 10.0 mi NE 6.9 mph - N/A   Overcast
8:30 PM 57.9 °F 46.0 °F 65% 30.09 in 10.0 mi Variable 4.6 mph - N/A   Overcast
8:52 PM 57.0 °F 45.0 °F 64% 30.09 in 10.0 mi NNE 9.2 mph - N/A   Overcast
10:52 PM 55.9 °F 45.0 °F 67% 30.07 in 10.0 mi NNE 8.1 mph - N/A   Partly Cloudy
11:52 PM 55.9 °F 46.0 °F 69% 30.07 in 10.0 mi NNE 4.6 mph - N/A   Partly Cloudy